SL-16 R/B (25861 NORAD) Tracking and Keplerian Element Data

This shows tracking and keplerian element data for the satellite.

Feedback or suggestion? Click here.




ElementValue
Catalog25861
NameSL-16 R/B
Epoch Orbit2411
Epoch Day198.95037758
Epoch Year2018
RAAN179.187
Inclination98.1537
Eccentricity0.0014403
Argument of Perigee246.6144
Mean Anonmoly125.6372
Mean Motion14.78486518
Decay Rate7E-08
L11 25861U 99039B 18198.95037758 .00000007 00000-0 84565-5 0 9993
L22 25861 98.1537 179.1870 0014403 246.6144 125.6372 14.78486518 24115

Live tracking and technical data element details for SL-16 R/B (NORAD 25861). SL-16 R/B can be tracked NOW for your location showing map with azimuth and elevation plus other details from your city location.

Track the satellite on the map from your city or location and see movement details for azimuth, elevation, latitude, longitude, range, height, and movement on the map or in text.







IsCatalogInMostPopularTable: catalog: 25861, numindb: 27
Update: records affected: 1



GetName: 25861 SL-16 R/B

Hit Count: updated at: Thu, 19 Jul 2018 21:29:03 GMT